Regional Weather Roundup
Issued by NWS

Home | Current Version | Previous Version | Text Only | Print | Product List | Glossary On
Versions: 1 2 3 4 5 6 7 8 9 10 11 12 13 14 15 16 17 18 19 20 21 22 23 24 25 26 27 28
000
ASCA42 TJSJ 250310
RWRPR
PUERTO RICO/U.S. VIRGIN ISLANDS HOURLY WEATHER ROUNDUP
NATIONAL WEATHER SERVICE SAN JUAN PR
1100 PM AST FRI MAR 24 2017

PRZ001>002-007>008-010-250400-
PUERTO RICO

CITY           SKY/WX    TMP DP  RH WIND       PRES   REMARKS
SAN JUAN LMM   PTCLDY    75  75 100 E6        29.98S
PONCE          LGT RAIN  73  73 100 SW7       30.01
AGUADILLA      PTCLDY    73  72  94 NE3       29.97S
CEIBA          LGT RAIN  75  73  94 S5        30.02R FOG
$$

VIZ001>002-250400-
U.S. VIRGIN ISLANDS

CITY           SKY/WX    TMP DP  RH WIND       PRES   REMARKS
CHARLOTTE AMA  LGT RAIN  73  73 100 E8        29.97S
CHRISTIANSTED  MOCLDY    77  72  83 E9        29.98S
$$

HOURLY WEATHER ROUNDUP FOR THE NEWS MEDIA

CITY           SKY/WX    TMP DP  RH WIND       PRES   REMARKS
ORLANDO        PTCLDY    67  57  70 E9        30.31R
NEW YORK       PTCLDY    46  38  73 S7        30.16F
NEWARK         MOCLDY    52  33  48 SW10      30.14F
CHICAGO        CLOUDY    43  36  76 N16       30.07R
HARTFORD       MOCLDY    47  35  63 SW9       30.07F
BOSTON         CLOUDY    46  31  55 W8G22     30.08R
DALLAS         PTCLDY    72  44  36 W8        29.82R
PHILADELPHIA   PTCLDY    51  34  52 NW6       30.18R
LOS ANGELES    MOCLDY    60  46  59 W17       30.16S
WASHINGTON DC  PTCLDY    60  45  57 S9        30.18R



USA.gov is the U.S. government's official web portal to all federal, state and local government web resources and services.